Weather History for Denver, CO

Change the Weather History Date:

Thursday, June 13, 2013

  Actual Average (KDEN) Record (KDEN)
Temperature  
Mean Temperature 76 °F 67 °F  
Max Temperature 95 °F 82 °F 99 °F (1994)
Min Temperature 57 °F 52 °F 35 °F (1947)
Degree Days  
Heating Degree Days 0 2  
Month to date heating degree days 42  
Since 1 June heating degree days 42  
Since 1 July heating degree days 6038  
Cooling Degree Days 11 4  
Month to date cooling degree days 38  
Year to date cooling degree days 60  
Since 1 June cooling degree days 38  
Growing Degree Days 26 (Base 50)    
Moisture  
Dew Point 49 °F    
Average Humidity 56    
Maximum Humidity 88    
Minimum Humidity 19    
Precipitation  
Precipitation 0.00 in 0.07 in 0.68 in (2001)
Month to date precipitation 0.94  
Year to date precipitation 6.47  
Snow  
Snow 0.00 in - - ()
Month to date snowfall  
Since 1 June snowfall  
Since 1 July snowfall  
Snow Depth -    
Sea Level Pressure  
Sea Level Pressure 30.11 in    
Wind  
Wind Speed 10 mph (SE)    
Max Wind Speed 17 mph    
Max Gust Speed 34 mph    
Visibility 10 miles    
Events      
T = Trace of Precipitation, MM = Missing Value Source: NWS Daily Summary

Daily Weather History Graph

Daily Weather History Graph

Search for Another Location

Airport:

Trip Planner

Search our weather history database for the weather conditions in past years. The results will help you decide how hot, cold, wet, or windy it might be!

Date:

Astronomy

Jun. 13, 2013 Rise Set
Actual Time 5:29 AM MDT 8:27 PM MDT
Civil Twilight 4:56 AM MDT 9:00 PM MDT
Nautical Twilight 4:15 AM MDT 9:41 PM MDT
Astronomical Twilight 3:27 AM MDT 10:29 PM MDT
Moon 10:08 AM MDT (6/13) 11:35 PM MDT (6/13)
Length of Visible Light 16h 03m
Length of Day
14h 57m
Waxing Crescent, 22% of the Moon is Illuminated
Jun 13
Waxing Crescent
Jun 16
First Quarter
Jun 23
Full
Jun 29
Last Quarter
Jul 8
New

Hourly Weather History & Observations

Time (MDT) Temp. Dew Point Humidity Pressure Visibility Wind Dir Wind Speed Gust Speed Precip Events Conditions
12:18 AM 73.4 °F 42.8 °F 33% 30.15 in 10.0 mi ESE 17.3 mph 26.5 mph N/A   Clear
12:38 AM 71.6 °F 44.6 °F 38% 30.16 in 10.0 mi East 10.4 mph 18.4 mph N/A   Clear
12:57 AM 68.0 °F 48.2 °F 49% 30.17 in 10.0 mi ENE 6.9 mph - N/A   Clear
1:18 AM 64.4 °F 51.8 °F 64% 30.17 in 10.0 mi East 6.9 mph - N/A   Clear
1:38 AM 62.6 °F 51.8 °F 68% 30.18 in 10.0 mi NE 6.9 mph - N/A   Clear
1:57 AM 62.6 °F 51.8 °F 68% 30.16 in 10.0 mi East 6.9 mph - N/A   Clear
2:18 AM 62.6 °F 51.8 °F 68% 30.16 in 10.0 mi East 10.4 mph - N/A   Clear
2:38 AM 62.6 °F 50.0 °F 63% 30.15 in 10.0 mi East 8.1 mph - N/A   Clear
2:58 AM 62.6 °F 50.0 °F 63% 30.15 in 10.0 mi ESE 10.4 mph - N/A   Clear
3:18 AM 64.4 °F 51.8 °F 64% 30.15 in 10.0 mi ESE 12.7 mph - N/A   Clear
3:38 AM 60.8 °F 51.8 °F 72% 30.15 in 10.0 mi ESE 6.9 mph - N/A   Clear
3:58 AM 60.8 °F 51.8 °F 72% 30.15 in 10.0 mi SSE 6.9 mph - N/A   Clear
4:18 AM 60.8 °F 50.0 °F 68% 30.15 in 10.0 mi SSE 8.1 mph - N/A   Clear
4:38 AM 60.8 °F 50.0 °F 68% 30.15 in 10.0 mi SSE 10.4 mph - N/A   Clear
4:58 AM 60.8 °F 53.6 °F 77% 30.15 in 10.0 mi South 5.8 mph - N/A   Clear
5:18 AM 59.0 °F 53.6 °F 82% 30.16 in 10.0 mi SW 10.4 mph - N/A   Clear
5:38 AM 59.0 °F 53.6 °F 82% 30.16 in 10.0 mi SW 11.5 mph - N/A   Clear
5:58 AM 57.2 °F 53.6 °F 88% 30.17 in 10.0 mi SW 10.4 mph - N/A   Clear
6:18 AM 57.2 °F 53.6 °F 88% 30.18 in 10.0 mi SW 9.2 mph - N/A   Clear
6:38 AM 57.2 °F 53.6 °F 88% 30.18 in 10.0 mi West 9.2 mph - N/A   Clear
6:54 AM 59.0 °F 53.6 °F 82% 30.18 in 10.0 mi WSW 10.4 mph - N/A   Clear
7:48 AM 60.8 °F 55.4 °F 82% 30.18 in 7.0 mi WSW 9.2 mph - N/A   Mostly Cloudy
8:48 AM 64.4 °F 55.4 °F 73% 30.19 in 6.0 mi WSW 8.1 mph - N/A   Smoke
10:48 AM 73.4 °F 55.4 °F 53% 30.16 in 6.0 mi Calm Calm - N/A   Smoke
1:50 PM 91.4 °F 50.0 °F 24% 30.05 in 8.0 mi East 16.1 mph 23.0 mph N/A   Mostly Cloudy
2:47 PM 95.0 °F 46.4 °F 19% 30.01 in 8.0 mi East 17.3 mph 29.9 mph N/A   Mostly Cloudy
4:47 PM 86.0 °F 41.0 °F 20% 30.01 in 8.0 mi SSW 17.3 mph 34.5 mph N/A   Mostly Cloudy
9:17 PM 71.6 °F 51.8 °F 50% 30.02 in 10.0 mi ESE 10.4 mph - N/A   Clear
9:38 PM 69.8 °F 50.0 °F 49% 30.02 in 10.0 mi ESE 11.5 mph - N/A   Clear
9:58 PM 73.4 °F 44.6 °F 36% 30.01 in 10.0 mi SE 8.1 mph - N/A   Clear
10:18 PM 77.0 °F 41.0 °F 28% 30.01 in 10.0 mi South 5.8 mph - N/A   Clear
10:38 PM 75.2 °F 39.2 °F 27% 30.01 in 10.0 mi Calm Calm - N/A   Clear
10:58 PM 73.4 °F 41.0 °F 31% 30.01 in 10.0 mi SSE 5.8 mph - N/A   Clear
11:18 PM 75.2 °F 39.2 °F 27% 30.01 in 10.0 mi Calm Calm - N/A   Clear
11:37 PM 69.8 °F 46.4 °F 43% 30.02 in 10.0 mi SE 8.1 mph - N/A   Clear
11:58 PM 77.0 °F 37.4 °F 24% 30.02 in 10.0 mi SSW 12.7 mph 17.3 mph N/A   Clear